Regional Weather Roundup
Issued by NWS

Home | Current Version | Previous Version | Graphics & Text | Print | Product List | Glossary On
Versions: 1 2 3 4 5 6 7 8 9 10 11 12 13 14 15 16 17 18 19 20 21 22 23 24 25 26 27 28 29 30 31 32 33 34 35 36 37 38 39 40 41 42 43 44 45 46 47 48 49 50
641
ASUS43 KDTX 070601
RWRMI
MICHIGAN HOURLY REGIONAL WEATHER ROUNDUP
NATIONAL WEATHER SERVICE DETROIT/PONTIAC MI
100 AM EST SUN FEB 07 2016

NOTE: "FAIR" INDICATES FEW OR NO CLOUDS BELOW 12,000 FEET WITH NO
SIGNIFICANT WEATHER AND/OR OBSTRUCTION TO VISIBILITY.

MIZ047>049-052>055-059>063-066>070-074>076-081>083-070700-
SOUTHEAST LOWER MICHIGAN

CITY           SKY/WX    TMP DP  RH WIND       PRES   REMARKS
ADRIAN         CLEAR     29  25  85 SW7       30.11F WCI  22
6HR MIN TEMP:  29; 6HR MAX TEMP:  32;

ALMA           CLOUDY    33  29  86 SW7       30.05F WCI  27
ANN ARBOR      CLOUDY    32  25  75 SW5       30.10F WCI  27
BAD AXE        CLOUDY    32  26  77 S6        30.06F WCI  26
CARO           CLOUDY    31  24  73 S6        30.05F WCI  26
DETROIT CITY   CLOUDY    34  24  67 SW9       30.11F WCI  27
6HR MIN TEMP:  34; 6HR MAX TEMP:  35;

DETROIT        CLOUDY    33  25  72 S8        30.12F WCI  26
6HR MIN TEMP:  32; 6HR MAX TEMP:  34;

FLINT          CLOUDY    36  25  64 SW7       30.07F WCI  30
6HR MIN TEMP:  35; 6HR MAX TEMP:  36;

GROSSE ILE     CLOUDY    34  27  75 SW5       30.11F WCI  30
HILLSDALE      CLEAR     30  26  83 S7        30.08F WCI  23
6HR MIN TEMP:  30; 6HR MAX TEMP:  33;

HOWELL         PTCLDY    32  26  78 SW7       30.07F WCI  26

CITY           SKY/WX    TMP DP  RH WIND       PRES   REMARKS
JACKSON        PTCLDY    32  24  72 S6        30.08F WCI  26
6HR MIN TEMP:  32; 6HR MAX TEMP:  34;

LAMBERTVILLE   MOCLDY    32  25  76 S5        30.13F WCI  27
6HR MIN TEMP:  32; 6HR MAX TEMP:  33;

LANSING        CLOUDY    33  26  75 S10       30.07F WCI  25
6HR MIN TEMP:  32; 6HR MAX TEMP:  33;

LAPEER         CLOUDY    32  26  76 SW6       30.07F WCI  27
6HR MIN TEMP:  32; 6HR MAX TEMP:  33;

MASON          MOCLDY    32  27  82 S3        30.07F
MONROE         CLOUDY    33  26  75 SW5       30.12F WCI  28
6HR MIN TEMP:  32; 6HR MAX TEMP:  34;

MT. CLEMENS    CLOUDY    34  25  69 SW9       30.08F WCI  27
6HR MIN TEMP:  33; 6HR MAX TEMP:  36;

PONTIAC        CLOUDY    33  24  69 SW6       30.07F WCI  28
6HR MIN TEMP:  33; 6HR MAX TEMP:  34;

PORT HOPE        N/A     32  26  78 VRB6      30.04F WCI  26
6HR MIN TEMP:  32; 6HR MAX TEMP:  34;

PORT HURON     CLOUDY    32  25  74 S5        30.10F WCI  27
TRI CITIES     CLOUDY    34  24  67 S7        30.05F WCI  28
6HR MIN TEMP:  34; 6HR MAX TEMP:  35;

MIDLAND        CLOUDY    32  26  78 S3        30.04F
6HR MIN TEMP:  32; 6HR MAX TEMP:  33;

TROY           CLOUDY    35  25  66 SW6       30.11F WCI  30
SAGINAW HB     CLOUDY    34  28  80 S8        30.05F WCI  27
$$
MIZ043>046-050>051-056>058-064>065-071>073-077>080-070700-
SOUTHWEST LOWER MICHIGAN

CITY           SKY/WX    TMP DP  RH WIND       PRES   REMARKS
BATTLE CREEK   CLOUDY    32  27  81 S9        30.06F WCI  24
6HR MIN TEMP:  30; 6HR MAX TEMP:  34;

BENTON HARBOR  PTCLDY    35  28  75 S7        30.06F WCI  29
6HR MIN TEMP:  32; 6HR MAX TEMP:  36;

BIG RAPIDS     MOCLDY    31  30  94 CALM      30.00F
6HR MIN TEMP:  31; 6HR MAX TEMP:  32;

COLDWATER      PTCLDY    32  26  79 S6        30.08F WCI  27
6HR MIN TEMP:  32; 6HR MAX TEMP:  34;

FREMONT        MOCLDY    32  31  98 S5        30.01F FOG     WCI  27
HOLLAND        PTCLDY    32  28  85 S7        30.04F WCI  26
6HR MIN TEMP:  30; 6HR MAX TEMP:  34;

GRAND RAPIDS   CLOUDY    33  27  78 S8        30.04F WCI  26
6HR MIN TEMP:  31; 6HR MAX TEMP:  34;

IONIA          CLOUDY    33  27  80 S9        30.04F WCI  25
6HR MIN TEMP:  32; 6HR MAX TEMP:  33;

KALAMAZOO      CLOUDY    31  26  82 S7        30.06F WCI  24
6HR MIN TEMP:  29; 6HR MAX TEMP:  35;

LUDINGTON      PTCLDY    31  30  94 S3        30.00F FOG
6HR MIN TEMP:  31; 6HR MAX TEMP:  33;

MARSHALL       MOCLDY    32  27  80 S5        30.07F WCI  27
6HR MIN TEMP:  31; 6HR MAX TEMP:  34;

MOUNT PLEASANT PTCLDY    32  28  83 S3        30.03S
6HR MIN TEMP:  32; 6HR MAX TEMP:  33;

MUSKEGON       PTCLDY    36  31  82 S14       30.03F WCI  27
6HR MIN TEMP:  29; 6HR MAX TEMP:  36;

SOUTH HAVEN    PTCLDY    34  29  82 S6        30.05F WCI  29
$$
MIZ016>042-070700-
NORTHERN LOWER MICHIGAN

CITY           SKY/WX    TMP DP  RH WIND       PRES   REMARKS
ALPENA         CLOUDY    29  24  82 S5        30.00F WCI  24
6HR MIN TEMP:  28; 6HR MAX TEMP:  31;

BEAVER ISLAND  CLOUDY    34  30  85 SW10G16   29.94F WCI  26
6HR MIN TEMP:  30; 6HR MAX TEMP:  34;

BELLAIRE       CLOUDY    31  26  84 CALM      29.99F
6HR MIN TEMP:  30; 6HR MAX TEMP:  31;

CADILLAC       CLOUDY    31  29  92 SW13      29.96F WCI  21
CHARLEVOIX     CLOUDY    32  28  83 S6        29.99F WCI  26
FRANKFORT      CLOUDY    33  30  86 S8        29.98S WCI  27
GAYLORD        CLOUDY    28  24  85 SW8       29.95F WCI  20
6HR MIN TEMP:  28; 6HR MAX TEMP:  29;

GRAYLING       MOCLDY    29  25  87 CALM      29.98F
HARBOR SPRINGS CLOUDY    31  26  83 SW7       29.97S WCI  24
HOUGHTON LAKE  CLOUDY    30  25  81 SW7       29.99F WCI  23
6HR MIN TEMP:  29; 6HR MAX TEMP:  30;

MANISTEE       MOCLDY    30  25  80 S3        30.00F
OSCODA         CLOUDY    31  27  82 SW7       30.02S WCI  25
6HR MIN TEMP:  31; 6HR MAX TEMP:  32;

PELLSTON       CLOUDY    31  25  78 VRB3      29.97S
6HR MIN TEMP:  29; 6HR MAX TEMP:  31;

ROGERS CITY    CLOUDY    28  24  82 SE5       30.00F WCI  23
TRAVERSE CITY  PTCLDY    32  26  78 VRB6      29.97F WCI  26
6HR MIN TEMP:  31; 6HR MAX TEMP:  32;

$$
MIZ007>008-015-070700-
EASTERN UPPER MICHIGAN

CITY           SKY/WX    TMP DP  RH WIND       PRES   REMARKS
KINROSS        CLOUDY    28  27  93 S6        29.94F WCI  22
6HR MIN TEMP:  25; 6HR MAX TEMP:  28;

MACKINAC ISLAN CLOUDY    30  26  86 S7        29.95S WCI  23
6HR MIN TEMP:  28; 6HR MAX TEMP:  30;

NEWBERRY       LGT SNOW  29  28  96 S9        29.90F WCI  21
6HR MIN TEMP:  26; 6HR MAX TEMP:  29;

S. S. MARIE    LGT SNOW  27  24  89 SE3       29.93F FOG
6HR MIN TEMP:  26; 6HR MAX TEMP:  28; 6HR PCP:  0.02;

$$
MIZ004>006-011>014-085-070700-
CENTRAL UPPER MICHIGAN

CITY           SKY/WX    TMP DP  RH WIND       PRES   REMARKS
MANISTIQUE     LGT SNOW  32  30  93 SW16G24   29.91F WCI  21
6HR MIN TEMP:  28; 6HR MAX TEMP:  32;

ESCANABA       CLOUDY    30  27  86 SW10G16   29.90F WCI  21
6HR MIN TEMP:  30; 6HR MAX TEMP:  30;

MENOMINEE      CLOUDY    28  25  86 SW12      29.90F WCI  18
6HR MIN TEMP:  28; 6HR MAX TEMP:  30;

SAWYER-GWINN   LGT SNOW  26  25  96 S14       29.80F WCI  15
6HR MIN TEMP:  26; 6HR MAX TEMP:  28;

$$
MIZ001>003-009>011-084-070700-
WESTERN UPPER MICHIGAN

CITY           SKY/WX    TMP DP  RH WIND       PRES   REMARKS
IRON MOUNTAIN  LGT SNOW  29  24  82 S12       29.80F WCI  19
6HR MIN TEMP:  28; 6HR MAX TEMP:  30; 6HR PCP: TRACE;

HOUGHTON       LGT SNOW  29  27  92 SE6       29.71F FOG     WCI  23
6HR MIN TEMP:  28; 6HR MAX TEMP:  30; 6HR PCP:  0.05;

COPPER HARBOR    N/A     31  29  92 SW8       29.75F WCI  23
6HR MIN TEMP:  27; 6HR MAX TEMP:  31; 6HR PCP:  0.05;

IRONWOOD       CLOUDY    30  27  86 S10G22    29.65F WCI  21
6HR MIN TEMP:  30; 6HR MAX TEMP:  34;

$$

ABBREVIATIONS USED IN REMARKS
   TC - TEMPERATURE IN CELSIUS
  WCI - WIND CHILL INDEX
   HX - HEAT INDEX
  VSB - VISIBILITY





USA.gov is the U.S. government's official web portal to all federal, state and local government web resources and services.